Year,Month,Day,Hour,Minute,Value (Times are PST for temperature in C)
2009,05,19,00,00,7.20
2009,05,19,00,01,7.30
2009,05,19,00,02,7.40
2009,05,19,00,03,7.50
2009,05,19,00,04,7.60
2009,05,19,00,05,7.60
2009,05,19,00,06,7.60
2009,05,19,00,07,7.60
2009,05,19,00,08,7.60
2009,05,19,00,09,7.60
2009,05,19,00,10,7.50
2009,05,19,00,11,7.50
2009,05,19,00,12,7.40
2009,05,19,00,13,7.40
2009,05,19,00,14,7.40
2009,05,19,00,15,7.40
2009,05,19,00,16,7.40
2009,05,19,00,17,7.30
2009,05,19,00,18,7.30
2009,05,19,00,19,7.30
2009,05,19,00,20,7.30
2009,05,19,00,21,7.30
2009,05,19,00,22,7.20
2009,05,19,00,23,7.20
2009,05,19,00,24,7.10
2009,05,19,00,25,7.10
2009,05,19,00,26,7.00
2009,05,19,00,27,6.90
2009,05,19,00,28,6.90
2009,05,19,00,29,6.80
2009,05,19,00,30,6.80
2009,05,19,00,31,6.80
2009,05,19,00,32,7.00
2009,05,19,00,33,7.00
2009,05,19,00,34,7.10
2009,05,19,00,35,7.10
2009,05,19,00,36,7.10
2009,05,19,00,37,7.10
2009,05,19,00,38,7.10
2009,05,19,00,39,7.10
2009,05,19,00,40,7.10
2009,05,19,00,41,7.10
2009,05,19,00,42,7.10
2009,05,19,00,43,7.10
2009,05,19,00,44,7.20
2009,05,19,00,45,7.20
2009,05,19,00,46,7.20
2009,05,19,00,47,7.30
2009,05,19,00,48,7.30
2009,05,19,00,49,7.40
2009,05,19,00,50,7.40
2009,05,19,00,51,7.40
2009,05,19,00,52,7.30
2009,05,19,00,53,7.30
2009,05,19,00,54,7.30
2009,05,19,00,55,7.20
2009,05,19,00,56,7.20
2009,05,19,00,57,7.20
2009,05,19,00,58,7.10
2009,05,19,00,59,7.10
2009,05,19,01,00,7.10
2009,05,19,01,01,7.10
2009,05,19,01,02,7.00
2009,05,19,01,03,7.00
2009,05,19,01,04,6.90
2009,05,19,01,05,6.80
2009,05,19,01,06,6.80
2009,05,19,01,07,6.80
2009,05,19,01,08,6.80
2009,05,19,01,09,6.70
2009,05,19,01,10,6.70
2009,05,19,01,11,6.70
2009,05,19,01,12,6.60
2009,05,19,01,13,6.50
2009,05,19,01,14,6.50
2009,05,19,01,15,6.50
2009,05,19,01,16,6.40
2009,05,19,01,17,6.40
2009,05,19,01,18,6.40
2009,05,19,01,19,6.40
2009,05,19,01,20,6.30
2009,05,19,01,21,6.30
2009,05,19,01,22,6.30
2009,05,19,01,23,6.20
2009,05,19,01,24,6.20
2009,05,19,01,25,6.20
2009,05,19,01,26,6.10
2009,05,19,01,27,6.10
2009,05,19,01,28,6.00
2009,05,19,01,29,5.90
2009,05,19,01,30,5.90
2009,05,19,01,31,5.90
2009,05,19,01,32,5.90
2009,05,19,01,33,5.90
2009,05,19,01,34,5.90
2009,05,19,01,35,5.90
2009,05,19,01,36,5.90
2009,05,19,01,37,5.90
2009,05,19,01,38,5.60
2009,05,19,01,39,5.40
2009,05,19,01,40,5.40
2009,05,19,01,41,5.40
2009,05,19,01,42,5.30
2009,05,19,01,43,5.30
2009,05,19,01,44,5.30
2009,05,19,01,45,5.20
2009,05,19,01,46,5.20
2009,05,19,01,47,5.20
2009,05,19,01,48,5.10
2009,05,19,01,49,5.10
2009,05,19,01,50,5.10
2009,05,19,01,51,5.10
2009,05,19,01,52,5.10
2009,05,19,01,53,5.10
2009,05,19,01,54,5.10
2009,05,19,01,55,5.10
2009,05,19,01,56,5.10
2009,05,19,01,57,5.10
2009,05,19,01,58,5.10
2009,05,19,01,59,5.10
2009,05,19,02,00,5.10
2009,05,19,02,01,5.10
2009,05,19,02,02,5.10
2009,05,19,02,03,5.10
2009,05,19,02,04,5.00
2009,05,19,02,05,5.00
2009,05,19,02,06,4.90
2009,05,19,02,07,4.90
2009,05,19,02,08,4.90
2009,05,19,02,09,4.90
2009,05,19,02,10,4.80
2009,05,19,02,11,4.80
2009,05,19,02,12,4.80
2009,05,19,02,13,4.80
2009,05,19,02,14,4.80
2009,05,19,02,15,4.80
2009,05,19,02,16,4.80
2009,05,19,02,17,4.80
2009,05,19,02,18,4.80
2009,05,19,02,19,4.80
2009,05,19,02,20,4.80
2009,05,19,02,21,4.90
2009,05,19,02,22,4.90
2009,05,19,02,23,5.00
2009,05,19,02,24,5.10
2009,05,19,02,25,5.10
2009,05,19,02,26,5.10
2009,05,19,02,27,5.10
2009,05,19,02,28,5.20
2009,05,19,02,29,5.20
2009,05,19,02,30,5.20
2009,05,19,02,31,5.30
2009,05,19,02,32,5.30
2009,05,19,02,33,5.30
2009,05,19,02,34,5.40
2009,05,19,02,35,5.40
2009,05,19,02,36,5.40
2009,05,19,02,37,5.40
2009,05,19,02,38,5.50
2009,05,19,02,39,5.60
2009,05,19,02,40,5.70
2009,05,19,02,41,5.70
2009,05,19,02,42,5.80
2009,05,19,02,43,5.80
2009,05,19,02,44,5.80
2009,05,19,02,45,5.80
2009,05,19,02,46,5.80
2009,05,19,02,47,5.80
2009,05,19,02,48,5.80
2009,05,19,02,49,5.70
2009,05,19,02,50,5.70
2009,05,19,02,51,5.70
2009,05,19,02,52,5.60
2009,05,19,02,53,5.50
2009,05,19,02,54,5.50
2009,05,19,02,55,5.40
2009,05,19,02,56,5.40
2009,05,19,02,57,5.30
2009,05,19,02,58,5.30
2009,05,19,02,59,5.30
2009,05,19,03,00,5.30
2009,05,19,03,01,5.30
2009,05,19,03,02,5.30
2009,05,19,03,03,5.30
2009,05,19,03,04,5.30
2009,05,19,03,05,5.30
2009,05,19,03,06,5.20
2009,05,19,03,07,5.20
2009,05,19,03,08,5.20
2009,05,19,03,09,5.10
2009,05,19,03,10,5.10
2009,05,19,03,11,5.10
2009,05,19,03,12,5.10
2009,05,19,03,13,5.10
2009,05,19,03,14,5.10
2009,05,19,03,15,5.10
2009,05,19,03,16,5.20
2009,05,19,03,17,5.20
2009,05,19,03,18,5.20
2009,05,19,03,19,5.20
2009,05,19,03,20,5.20
2009,05,19,03,21,5.20
2009,05,19,03,22,5.20
2009,05,19,03,23,5.20
2009,05,19,03,24,5.20
2009,05,19,03,25,5.20
2009,05,19,03,26,5.20
2009,05,19,03,27,5.30
2009,05,19,03,28,5.20
2009,05,19,03,29,5.20
2009,05,19,03,30,5.30
2009,05,19,03,31,5.30
2009,05,19,03,32,5.30
2009,05,19,03,33,5.30
2009,05,19,03,34,5.30
2009,05,19,03,35,5.30
2009,05,19,03,36,5.30
2009,05,19,03,37,5.30
2009,05,19,03,38,5.30
2009,05,19,03,39,5.30
2009,05,19,03,40,5.30
2009,05,19,03,41,5.30
2009,05,19,03,42,5.40
2009,05,19,03,43,5.40
2009,05,19,03,44,5.40
2009,05,19,03,45,5.30
2009,05,19,03,46,5.30
2009,05,19,03,47,5.30
2009,05,19,03,48,5.30
2009,05,19,03,49,5.30
2009,05,19,03,50,5.30
2009,05,19,03,51,5.30
2009,05,19,03,52,5.30
2009,05,19,03,53,5.30
2009,05,19,03,54,5.20
2009,05,19,03,55,5.20
2009,05,19,03,56,5.20
2009,05,19,03,57,5.20
2009,05,19,03,58,5.30
2009,05,19,03,59,5.30
2009,05,19,04,00,5.30
2009,05,19,04,01,5.30
2009,05,19,04,02,5.30
2009,05,19,04,03,5.30
2009,05,19,04,04,5.20
2009,05,19,04,05,5.20
2009,05,19,04,06,5.20
2009,05,19,04,07,5.10
2009,05,19,04,08,5.10
2009,05,19,04,09,5.10
2009,05,19,04,10,5.10
2009,05,19,04,11,5.10
2009,05,19,04,12,5.10
2009,05,19,04,13,5.10
2009,05,19,04,14,5.10
2009,05,19,04,15,5.10
2009,05,19,04,16,5.10
2009,05,19,04,17,5.20
2009,05,19,04,18,5.20
2009,05,19,04,19,5.20
2009,05,19,04,20,5.20
2009,05,19,04,21,5.20
2009,05,19,04,22,5.20
2009,05,19,04,23,5.20
2009,05,19,04,24,5.20
2009,05,19,04,25,5.20
2009,05,19,04,26,5.20
2009,05,19,04,27,5.20
2009,05,19,04,28,5.20
2009,05,19,04,29,5.20
2009,05,19,04,30,5.10
2009,05,19,04,31,5.10
2009,05,19,04,32,5.10
2009,05,19,04,33,5.00
2009,05,19,04,34,5.00
2009,05,19,04,35,5.00
2009,05,19,04,36,4.90
2009,05,19,04,37,4.90
2009,05,19,04,38,4.90
2009,05,19,04,39,4.90
2009,05,19,04,40,4.80
2009,05,19,04,41,4.80
2009,05,19,04,42,4.80
2009,05,19,04,43,4.70
2009,05,19,04,44,4.70
2009,05,19,04,45,4.70
2009,05,19,04,46,4.70
2009,05,19,04,47,4.70
2009,05,19,04,48,4.70
2009,05,19,04,49,4.70
2009,05,19,04,50,4.70
2009,05,19,04,51,4.80
2009,05,19,04,52,4.80
2009,05,19,04,53,4.80
2009,05,19,04,54,4.80
2009,05,19,04,55,4.80
2009,05,19,04,56,4.80
2009,05,19,04,57,4.80
2009,05,19,04,58,4.80
2009,05,19,04,59,4.80
2009,05,19,05,00,4.80
2009,05,19,05,01,4.80
2009,05,19,05,02,4.80
2009,05,19,05,03,4.80
2009,05,19,05,04,4.70
2009,05,19,05,05,4.70
2009,05,19,05,06,4.70
2009,05,19,05,07,4.70
2009,05,19,05,08,4.70
2009,05,19,05,09,4.70
2009,05,19,05,10,4.70
2009,05,19,05,11,4.60
2009,05,19,05,12,4.60
2009,05,19,05,13,4.60
2009,05,19,05,14,4.60
2009,05,19,05,15,4.50
2009,05,19,05,16,4.50
2009,05,19,05,17,4.50
2009,05,19,05,18,4.50
2009,05,19,05,19,4.50
2009,05,19,05,20,4.50
2009,05,19,05,21,4.50
2009,05,19,05,22,4.50
2009,05,19,05,23,4.50
2009,05,19,05,24,4.50
2009,05,19,05,25,4.50
2009,05,19,05,26,4.50
2009,05,19,05,27,4.50
2009,05,19,05,28,4.50
2009,05,19,05,29,4.50
2009,05,19,05,30,4.50
2009,05,19,05,31,4.50
2009,05,19,05,32,4.50
2009,05,19,05,33,4.50
2009,05,19,05,34,4.50
2009,05,19,05,35,4.50
2009,05,19,05,36,4.50
2009,05,19,05,37,4.50
2009,05,19,05,38,4.50
2009,05,19,05,39,4.50
2009,05,19,05,40,4.60
2009,05,19,05,41,4.60
2009,05,19,05,42,4.60
2009,05,19,05,43,4.50
2009,05,19,05,44,4.50
2009,05,19,05,45,4.50
2009,05,19,05,46,4.50
2009,05,19,05,47,4.40
2009,05,19,05,48,4.40
2009,05,19,05,49,4.40
2009,05,19,05,50,4.50
2009,05,19,05,51,4.50
2009,05,19,05,52,4.50
2009,05,19,05,53,4.60
2009,05,19,05,54,4.60
2009,05,19,05,55,4.60
2009,05,19,05,56,4.60
2009,05,19,05,57,4.60
2009,05,19,05,58,4.60
2009,05,19,05,59,4.60
2009,05,19,06,00,4.60
2009,05,19,06,01,4.60
2009,05,19,06,02,4.60
2009,05,19,06,03,4.60
2009,05,19,06,04,4.60
2009,05,19,06,05,4.60
2009,05,19,06,06,4.60
2009,05,19,06,07,4.60
2009,05,19,06,08,4.60
2009,05,19,06,09,4.60
2009,05,19,06,10,4.60
2009,05,19,06,11,4.60
2009,05,19,06,12,4.60
2009,05,19,06,13,4.60
2009,05,19,06,14,4.60
2009,05,19,06,15,4.70
2009,05,19,06,16,4.70
2009,05,19,06,17,4.70
2009,05,19,06,18,4.70
2009,05,19,06,19,4.70
2009,05,19,06,20,4.70
2009,05,19,06,21,4.80
2009,05,19,06,22,4.80
2009,05,19,06,23,4.80
2009,05,19,06,24,4.80
2009,05,19,06,25,4.90
2009,05,19,06,26,4.90
2009,05,19,06,27,4.90
2009,05,19,06,28,4.90
2009,05,19,06,29,4.90
2009,05,19,06,30,4.90
2009,05,19,06,31,4.90
2009,05,19,06,32,4.90
2009,05,19,06,33,4.90
2009,05,19,06,34,4.90
2009,05,19,06,35,4.90
2009,05,19,06,36,4.90
2009,05,19,06,37,4.90
2009,05,19,06,38,4.90
2009,05,19,06,39,4.90
2009,05,19,06,40,4.90
2009,05,19,06,41,4.90
2009,05,19,06,42,4.90
2009,05,19,06,43,5.00
2009,05,19,06,44,5.00
2009,05,19,06,45,5.00
2009,05,19,06,46,5.10
2009,05,19,06,47,5.10
2009,05,19,06,48,5.10
2009,05,19,06,49,5.10
2009,05,19,06,50,5.20
2009,05,19,06,51,5.20
2009,05,19,06,52,5.20
2009,05,19,06,53,5.20
2009,05,19,06,54,5.20
2009,05,19,06,55,5.20
2009,05,19,06,56,5.30
2009,05,19,06,57,5.30
2009,05,19,06,58,5.30
2009,05,19,06,59,5.30
2009,05,19,07,00,5.40
2009,05,19,07,01,5.40
2009,05,19,07,02,5.40
2009,05,19,07,03,5.40
2009,05,19,07,04,5.40
2009,05,19,07,05,5.50
2009,05,19,07,06,5.50
2009,05,19,07,07,5.60
2009,05,19,07,08,5.60
2009,05,19,07,09,5.70
2009,05,19,07,10,5.70
2009,05,19,07,11,5.80
2009,05,19,07,12,5.80
2009,05,19,07,13,5.80
2009,05,19,07,14,5.90
2009,05,19,07,15,6.00
2009,05,19,07,16,6.00
2009,05,19,07,17,6.10
2009,05,19,07,18,6.20
2009,05,19,07,19,6.30
2009,05,19,07,20,6.30
2009,05,19,07,21,6.40
2009,05,19,07,22,6.50
2009,05,19,07,23,6.60
2009,05,19,07,24,6.70
2009,05,19,07,25,6.80
2009,05,19,07,26,6.80
2009,05,19,07,27,6.90
2009,05,19,07,28,6.90
2009,05,19,07,29,7.00
2009,05,19,07,30,7.00
2009,05,19,07,31,7.00
2009,05,19,07,32,7.00
2009,05,19,07,33,7.00
2009,05,19,07,34,7.10
2009,05,19,07,35,7.10
2009,05,19,07,36,7.10
2009,05,19,07,37,7.10
2009,05,19,07,38,7.10
2009,05,19,07,39,7.20
2009,05,19,07,40,7.20
2009,05,19,07,41,7.20
2009,05,19,07,42,7.30
2009,05,19,07,43,7.40
2009,05,19,07,44,7.40
2009,05,19,07,45,7.50
2009,05,19,07,46,7.60
2009,05,19,07,47,7.70
2009,05,19,07,48,7.70
2009,05,19,07,49,7.80
2009,05,19,07,50,7.90
2009,05,19,07,51,8.00
2009,05,19,07,52,8.10
2009,05,19,07,53,8.20
2009,05,19,07,54,8.30
2009,05,19,07,55,8.40
2009,05,19,07,56,8.50
2009,05,19,07,57,8.60
2009,05,19,07,58,8.70
2009,05,19,07,59,8.70
2009,05,19,08,00,8.80
2009,05,19,08,01,8.90
2009,05,19,08,02,8.90
2009,05,19,08,03,9.00
2009,05,19,08,04,9.10
2009,05,19,08,05,9.10
2009,05,19,08,06,9.10
2009,05,19,08,07,9.10
2009,05,19,08,08,9.20
2009,05,19,08,09,9.20
2009,05,19,08,10,9.20
2009,05,19,08,11,9.20
2009,05,19,08,12,9.30
2009,05,19,08,13,9.30
2009,05,19,08,14,9.40
2009,05,19,08,15,9.40
2009,05,19,08,16,9.50
2009,05,19,08,17,9.50
2009,05,19,08,18,9.50
2009,05,19,08,19,9.60
2009,05,19,08,20,9.60
2009,05,19,08,21,9.60
2009,05,19,08,22,9.60
2009,05,19,08,23,9.60
2009,05,19,08,24,9.60
2009,05,19,08,25,9.60
2009,05,19,08,26,9.60
2009,05,19,08,27,9.70
2009,05,19,08,28,9.70
2009,05,19,08,29,9.70
2009,05,19,08,30,9.70
2009,05,19,08,31,9.70
2009,05,19,08,32,9.70
2009,05,19,08,33,9.70
2009,05,19,08,34,9.80
2009,05,19,08,35,9.80
2009,05,19,08,36,9.80
2009,05,19,08,37,9.80
2009,05,19,08,38,9.80
2009,05,19,08,39,9.80
2009,05,19,08,40,9.80
2009,05,19,08,41,9.90
2009,05,19,08,42,9.90
2009,05,19,08,43,9.90
2009,05,19,08,44,9.90
2009,05,19,08,45,9.90
2009,05,19,08,46,9.90
2009,05,19,08,47,10.00
2009,05,19,08,48,10.10
2009,05,19,08,49,10.10
2009,05,19,08,50,10.20
2009,05,19,08,51,10.20
2009,05,19,08,52,10.30
2009,05,19,08,53,10.30
2009,05,19,08,54,10.40
2009,05,19,08,55,10.50
2009,05,19,08,56,10.50
2009,05,19,08,57,10.60
2009,05,19,08,58,10.70
2009,05,19,08,59,10.70
2009,05,19,09,00,10.80
2009,05,19,09,01,10.80
2009,05,19,09,02,10.90
2009,05,19,09,03,10.90
2009,05,19,09,04,11.00
2009,05,19,09,05,11.00
2009,05,19,09,06,11.00
2009,05,19,09,07,11.00
2009,05,19,09,08,11.00
2009,05,19,09,09,11.00
2009,05,19,09,10,11.00
2009,05,19,09,11,11.00
2009,05,19,09,12,11.00
2009,05,19,09,13,11.00
2009,05,19,09,14,11.00
2009,05,19,09,15,11.00
2009,05,19,09,16,11.00
2009,05,19,09,17,11.00
2009,05,19,09,18,11.00
2009,05,19,09,19,11.00
2009,05,19,09,20,11.00
2009,05,19,09,21,11.10
2009,05,19,09,22,11.10
2009,05,19,09,23,11.10
2009,05,19,09,24,11.20
2009,05,19,09,25,11.20
2009,05,19,09,26,11.30
2009,05,19,09,27,11.30
2009,05,19,09,28,11.40
2009,05,19,09,29,11.40
2009,05,19,09,30,11.40
2009,05,19,09,31,11.50
2009,05,19,09,32,11.50
2009,05,19,09,33,11.50
2009,05,19,09,34,11.60
2009,05,19,09,35,11.60
2009,05,19,09,36,11.60
2009,05,19,09,37,11.70
2009,05,19,09,38,11.70
2009,05,19,09,39,11.70
2009,05,19,09,40,11.70
2009,05,19,09,41,11.70
2009,05,19,09,42,11.70
2009,05,19,09,43,11.80
2009,05,19,09,44,11.80
2009,05,19,09,45,11.80
2009,05,19,09,46,11.80
2009,05,19,09,47,11.80
2009,05,19,09,48,11.80
2009,05,19,09,49,11.80
2009,05,19,09,50,11.80
2009,05,19,09,51,11.80
2009,05,19,09,52,11.80
2009,05,19,09,53,11.80
2009,05,19,09,54,11.90
2009,05,19,09,55,11.90
2009,05,19,09,56,11.90
2009,05,19,09,57,11.80
2009,05,19,09,58,11.70
2009,05,19,09,59,11.50
2009,05,19,10,00,11.40
2009,05,19,10,01,11.30
2009,05,19,10,02,11.30
2009,05,19,10,03,11.30
2009,05,19,10,04,11.20
2009,05,19,10,05,11.10
2009,05,19,10,06,11.00
2009,05,19,10,07,10.90
2009,05,19,10,08,10.80
2009,05,19,10,09,10.70
2009,05,19,10,10,10.60
2009,05,19,10,11,10.50
2009,05,19,10,12,10.40
2009,05,19,10,13,10.40
2009,05,19,10,14,10.30
2009,05,19,10,15,10.30
2009,05,19,10,16,10.30
2009,05,19,10,17,10.20
2009,05,19,10,18,10.20
2009,05,19,10,19,10.20
2009,05,19,10,20,10.10
2009,05,19,10,21,10.10
2009,05,19,10,22,10.00
2009,05,19,10,23,10.00
2009,05,19,10,24,10.00
2009,05,19,10,25,10.00
2009,05,19,10,26,10.00
2009,05,19,10,27,10.00
2009,05,19,10,28,10.00
2009,05,19,10,29,10.00
2009,05,19,10,30,10.00
2009,05,19,10,31,10.00
2009,05,19,10,32,9.90
2009,05,19,10,33,9.90
2009,05,19,10,34,9.90
2009,05,19,10,35,9.90
2009,05,19,10,36,9.90
2009,05,19,10,37,9.90
2009,05,19,10,38,9.90
2009,05,19,10,39,10.00
2009,05,19,10,40,10.00
2009,05,19,10,41,10.00
2009,05,19,10,42,10.10
2009,05,19,10,43,10.10
2009,05,19,10,44,10.10
2009,05,19,10,45,10.20
2009,05,19,10,46,10.20
2009,05,19,10,47,10.30
2009,05,19,10,48,10.40
2009,05,19,10,49,10.40
2009,05,19,10,50,10.50
2009,05,19,10,51,10.50
2009,05,19,10,52,10.60
2009,05,19,10,53,10.70
2009,05,19,10,54,10.70
2009,05,19,10,55,10.80
2009,05,19,10,56,10.80
2009,05,19,10,57,10.80
2009,05,19,10,58,10.70
2009,05,19,10,59,10.70
2009,05,19,11,00,10.70
2009,05,19,11,01,10.70
2009,05,19,11,02,10.70
2009,05,19,11,03,10.70
2009,05,19,11,04,10.70
2009,05,19,11,05,10.70
2009,05,19,11,06,10.70
2009,05,19,11,07,10.70
2009,05,19,11,08,10.70
2009,05,19,11,09,10.80
2009,05,19,11,10,10.80
2009,05,19,11,11,10.80
2009,05,19,11,12,10.80
2009,05,19,11,13,10.80
2009,05,19,11,14,10.80
2009,05,19,11,15,10.80
2009,05,19,11,16,10.80
2009,05,19,11,17,10.80
2009,05,19,11,18,10.70
2009,05,19,11,19,10.70
2009,05,19,11,20,10.60
2009,05,19,11,21,10.60
2009,05,19,11,22,10.60
2009,05,19,11,23,10.60
2009,05,19,11,24,10.50
2009,05,19,11,25,10.50
2009,05,19,11,26,10.40
2009,05,19,11,27,10.40
2009,05,19,11,28,10.30
2009,05,19,11,29,10.30
2009,05,19,11,30,10.30
2009,05,19,11,31,10.20
2009,05,19,11,32,10.20
2009,05,19,11,33,10.20
2009,05,19,11,34,10.10
2009,05,19,11,35,10.10
2009,05,19,11,36,10.10
2009,05,19,11,37,10.10
2009,05,19,11,38,10.20
2009,05,19,11,39,10.10
2009,05,19,11,40,10.10
2009,05,19,11,41,10.20
2009,05,19,11,42,10.20
2009,05,19,11,43,10.20
2009,05,19,11,44,10.20
2009,05,19,11,45,10.20
2009,05,19,11,46,10.20
2009,05,19,11,47,10.30
2009,05,19,11,48,10.30
2009,05,19,11,49,10.40
2009,05,19,11,50,10.40
2009,05,19,11,51,10.40
2009,05,19,11,52,10.40
2009,05,19,11,53,10.40
2009,05,19,11,54,10.40
2009,05,19,11,55,10.40
2009,05,19,11,56,10.40
2009,05,19,11,57,10.30
2009,05,19,11,58,10.30
2009,05,19,11,59,10.30
2009,05,19,12,00,10.40
2009,05,19,12,01,10.40
2009,05,19,12,02,10.40
2009,05,19,12,03,10.40
2009,05,19,12,04,10.50
2009,05,19,12,05,10.50
2009,05,19,12,06,10.50
2009,05,19,12,07,10.50
2009,05,19,12,08,10.50
2009,05,19,12,09,10.50
2009,05,19,12,10,10.50
2009,05,19,12,11,10.50
2009,05,19,12,12,10.60
2009,05,19,12,13,10.60
2009,05,19,12,14,10.60
2009,05,19,12,15,10.70
2009,05,19,12,16,10.70
2009,05,19,12,17,10.70
2009,05,19,12,18,10.70
2009,05,19,12,19,10.80
2009,05,19,12,20,10.80
2009,05,19,12,21,10.80
2009,05,19,12,22,10.80
2009,05,19,12,23,10.80
2009,05,19,12,24,10.80
2009,05,19,12,25,10.90
2009,05,19,12,26,10.90
2009,05,19,12,27,10.90
2009,05,19,12,28,10.90
2009,05,19,12,29,11.00
2009,05,19,12,30,11.10
2009,05,19,12,31,11.20
2009,05,19,12,32,11.20
2009,05,19,12,33,11.20
2009,05,19,12,34,11.20
2009,05,19,12,35,11.20
2009,05,19,12,36,11.10
2009,05,19,12,37,11.10
2009,05,19,12,38,11.10
2009,05,19,12,39,11.10
2009,05,19,12,40,11.00
2009,05,19,12,41,10.90
2009,05,19,12,42,10.90
2009,05,19,12,43,10.90
2009,05,19,12,44,10.80
2009,05,19,12,45,10.80
2009,05,19,12,46,10.80
2009,05,19,12,47,10.80
2009,05,19,12,48,10.80
2009,05,19,12,49,10.80
2009,05,19,12,50,10.80
2009,05,19,12,51,10.90
2009,05,19,12,52,10.90
2009,05,19,12,53,10.90
2009,05,19,12,54,10.90
2009,05,19,12,55,10.80
2009,05,19,12,56,10.90
2009,05,19,12,57,10.90
2009,05,19,12,58,10.90
2009,05,19,12,59,11.00
2009,05,19,13,00,11.00
2009,05,19,13,01,11.10
2009,05,19,13,02,11.10
2009,05,19,13,03,11.20
2009,05,19,13,04,11.20
2009,05,19,13,05,11.30
2009,05,19,13,06,11.30
2009,05,19,13,07,11.40
2009,05,19,13,08,11.40
2009,05,19,13,09,11.50
2009,05,19,13,10,11.50
2009,05,19,13,11,11.50
2009,05,19,13,12,11.60
2009,05,19,13,13,11.60
2009,05,19,13,14,11.60
2009,05,19,13,15,11.70
2009,05,19,13,16,11.70
2009,05,19,13,17,11.70
2009,05,19,13,18,11.70
2009,05,19,13,19,11.80
2009,05,19,13,20,11.80
2009,05,19,13,21,11.80
2009,05,19,13,22,11.80
2009,05,19,13,23,11.70
2009,05,19,13,24,11.70
2009,05,19,13,25,11.70
2009,05,19,13,26,11.70
2009,05,19,13,27,11.70
2009,05,19,13,28,11.70
2009,05,19,13,29,11.70
2009,05,19,13,30,11.70
2009,05,19,13,31,11.70
2009,05,19,13,32,11.70
2009,05,19,13,33,11.70
2009,05,19,13,34,11.70
2009,05,19,13,35,11.70
2009,05,19,13,36,11.70
2009,05,19,13,37,11.70
2009,05,19,13,38,11.60
2009,05,19,13,39,11.60
2009,05,19,13,40,11.60
2009,05,19,13,41,11.60
2009,05,19,13,42,11.60
2009,05,19,13,43,11.70
2009,05,19,13,44,11.70
2009,05,19,13,45,11.70
2009,05,19,13,46,11.70
2009,05,19,13,47,11.70
2009,05,19,13,48,11.70
2009,05,19,13,49,11.70
2009,05,19,13,50,11.70
2009,05,19,13,51,11.70
2009,05,19,13,52,11.60
2009,05,19,13,53,11.60
2009,05,19,13,54,11.60
2009,05,19,13,55,11.50
2009,05,19,13,56,11.60
2009,05,19,13,57,11.60
2009,05,19,13,58,11.60
2009,05,19,13,59,11.60
2009,05,19,14,00,11.60
2009,05,19,14,01,11.60
2009,05,19,14,02,11.60
2009,05,19,14,03,11.60
2009,05,19,14,04,11.60
2009,05,19,14,05,11.70
2009,05,19,14,06,11.70
2009,05,19,14,07,11.70
2009,05,19,14,08,11.70
2009,05,19,14,09,11.70
2009,05,19,14,10,11.70
2009,05,19,14,11,11.70
2009,05,19,14,12,11.70
2009,05,19,14,13,11.70
2009,05,19,14,14,11.70
2009,05,19,14,15,11.70
2009,05,19,14,16,11.70
2009,05,19,14,17,11.70
2009,05,19,14,18,11.70
2009,05,19,14,19,11.80
2009,05,19,14,20,11.80
2009,05,19,14,21,11.70
2009,05,19,14,22,11.70
2009,05,19,14,23,11.70
2009,05,19,14,24,11.60
2009,05,19,14,25,11.50
2009,05,19,14,26,11.50
2009,05,19,14,27,11.40
2009,05,19,14,28,11.30
2009,05,19,14,29,11.20
2009,05,19,14,30,11.10
2009,05,19,14,31,10.90
2009,05,19,14,32,10.70
2009,05,19,14,33,10.60
2009,05,19,14,34,10.50
2009,05,19,14,35,10.50
2009,05,19,14,36,10.40
2009,05,19,14,37,10.30
2009,05,19,14,38,10.30
2009,05,19,14,39,10.20
2009,05,19,14,40,10.20
2009,05,19,14,41,10.10
2009,05,19,14,42,10.10
2009,05,19,14,43,10.10
2009,05,19,14,44,10.10
2009,05,19,14,45,10.10
2009,05,19,14,46,10.00
2009,05,19,14,47,10.00
2009,05,19,14,48,10.00
2009,05,19,14,49,9.90
2009,05,19,14,50,9.90
2009,05,19,14,51,9.90
2009,05,19,14,52,9.90
2009,05,19,14,53,10.00
2009,05,19,14,54,10.00
2009,05,19,14,55,10.00
2009,05,19,14,56,10.10
2009,05,19,14,57,10.10
2009,05,19,14,58,10.20
2009,05,19,14,59,10.20
2009,05,19,15,00,10.20
2009,05,19,15,01,10.20
2009,05,19,15,02,10.30
2009,05,19,15,03,10.30
2009,05,19,15,04,10.40
2009,05,19,15,05,10.40
2009,05,19,15,06,10.40
2009,05,19,15,07,10.50
2009,05,19,15,08,10.50
2009,05,19,15,09,10.50
2009,05,19,15,10,10.60
2009,05,19,15,11,10.60
2009,05,19,15,12,10.60
2009,05,19,15,13,10.70
2009,05,19,15,14,10.70
2009,05,19,15,15,10.70
2009,05,19,15,16,10.60
2009,05,19,15,17,10.60
2009,05,19,15,18,10.60
2009,05,19,15,19,10.60
2009,05,19,15,20,10.50
2009,05,19,15,21,10.50
2009,05,19,15,22,10.40
2009,05,19,15,23,10.40
2009,05,19,15,24,10.40
2009,05,19,15,25,10.40
2009,05,19,15,26,10.40
2009,05,19,15,27,10.40
2009,05,19,15,28,10.40
2009,05,19,15,29,10.40
2009,05,19,15,30,10.40
2009,05,19,15,31,10.40
2009,05,19,15,32,10.40
2009,05,19,15,33,10.40
2009,05,19,15,34,10.40
2009,05,19,15,35,10.40
2009,05,19,15,36,10.40
2009,05,19,15,37,10.40
2009,05,19,15,38,10.50
2009,05,19,15,39,10.50
2009,05,19,15,40,10.60
2009,05,19,15,41,10.60
2009,05,19,15,42,10.60
2009,05,19,15,43,10.60
2009,05,19,15,44,10.60
2009,05,19,15,45,10.60
2009,05,19,15,46,10.60
2009,05,19,15,47,10.70
2009,05,19,15,48,10.70
2009,05,19,15,49,10.70
2009,05,19,15,50,10.70
2009,05,19,15,51,10.80
2009,05,19,15,52,10.80
2009,05,19,15,53,10.80
2009,05,19,15,54,10.80
2009,05,19,15,55,10.90
2009,05,19,15,56,10.90
2009,05,19,15,57,11.00
2009,05,19,15,58,11.00
2009,05,19,15,59,11.10
2009,05,19,16,00,11.10
2009,05,19,16,01,11.20
2009,05,19,16,02,11.20
2009,05,19,16,03,11.20
2009,05,19,16,04,11.20
2009,05,19,16,05,11.20
2009,05,19,16,06,11.20
2009,05,19,16,07,11.20
2009,05,19,16,08,11.30
2009,05,19,16,09,11.30
2009,05,19,16,10,11.30
2009,05,19,16,11,11.30
2009,05,19,16,12,11.30
2009,05,19,16,13,11.40
2009,05,19,16,14,11.40
2009,05,19,16,15,11.40
2009,05,19,16,16,11.50
2009,05,19,16,17,11.60
2009,05,19,16,18,11.60
2009,05,19,16,19,11.60
2009,05,19,16,20,11.60
2009,05,19,16,21,11.60
2009,05,19,16,22,11.50
2009,05,19,16,23,11.50
2009,05,19,16,24,11.40
2009,05,19,16,25,11.40
2009,05,19,16,26,11.40
2009,05,19,16,27,11.40
2009,05,19,16,28,11.40
2009,05,19,16,29,11.40
2009,05,19,16,30,11.40
2009,05,19,16,31,11.40
2009,05,19,16,32,11.40
2009,05,19,16,33,11.40
2009,05,19,16,34,11.40
2009,05,19,16,35,11.40
2009,05,19,16,36,11.40
2009,05,19,16,37,11.40
2009,05,19,16,38,11.40
2009,05,19,16,39,11.40
2009,05,19,16,40,11.50
2009,05,19,16,41,11.40
2009,05,19,16,42,11.40
2009,05,19,16,43,11.40
2009,05,19,16,44,11.40
2009,05,19,16,45,11.40
2009,05,19,16,46,11.50
2009,05,19,16,47,11.50
2009,05,19,16,48,11.60
2009,05,19,16,49,11.60
2009,05,19,16,50,11.70
2009,05,19,16,51,11.70
2009,05,19,16,52,11.70
2009,05,19,16,53,11.70
2009,05,19,16,54,11.70
2009,05,19,16,55,11.70
2009,05,19,16,56,11.80
2009,05,19,16,57,11.80
2009,05,19,16,58,11.80
2009,05,19,16,59,11.80
2009,05,19,17,00,11.80
2009,05,19,17,01,11.70
2009,05,19,17,02,11.70
2009,05,19,17,03,11.60
2009,05,19,17,04,11.60
2009,05,19,17,05,11.50
2009,05,19,17,06,11.40
2009,05,19,17,07,11.40
2009,05,19,17,08,11.30
2009,05,19,17,09,11.30
2009,05,19,17,10,11.20
2009,05,19,17,11,11.20
2009,05,19,17,12,11.10
2009,05,19,17,13,11.00
2009,05,19,17,14,11.00
2009,05,19,17,15,10.90
2009,05,19,17,16,10.80
2009,05,19,17,17,10.80
2009,05,19,17,18,10.70
2009,05,19,17,19,10.60
2009,05,19,17,20,10.50
2009,05,19,17,21,10.30
2009,05,19,17,22,10.20
2009,05,19,17,23,10.10
2009,05,19,17,24,10.00
2009,05,19,17,25,9.90
2009,05,19,17,26,9.80
2009,05,19,17,27,9.80
2009,05,19,17,28,9.70
2009,05,19,17,29,9.70
2009,05,19,17,30,9.70
2009,05,19,17,31,9.70
2009,05,19,17,32,9.60
2009,05,19,17,33,9.60
2009,05,19,17,34,9.60
2009,05,19,17,35,9.70
2009,05,19,17,36,9.70
2009,05,19,17,37,9.70
2009,05,19,17,38,9.70
2009,05,19,17,39,9.80
2009,05,19,17,40,9.80
2009,05,19,17,41,9.80
2009,05,19,17,42,9.80
2009,05,19,17,43,9.90